Regional Weather Roundup
Issued by NWS

Home | Current Version | Previous Version | Text Only | Print | Product List | Glossary On
Versions: 1 2 3 4 5 6 7 8 9 10 11 12 13 14 15 16 17 18 19 20 21 22 23 24 25 26 27 28 29 30 31 32 33 34 35 36 37 38 39 40 41 42 43 44 45 46 47 48 49 50
000
ASUS42 KKEY 100410
RWRKEY

FLORIDA REGIONAL WEATHER ROUNDUP FOR THE FLORIDA KEYS
NATIONAL WEATHER SERVICE KEY WEST FLORIDA
1200 AM EDT THU JUL 10 2014

...SOUTH FLORIDA AND THE KEYS...

CITY           SKY/WX    TMP DP  RH WIND       PRES   REMARKS
FORT MYERS     PTCLDY    78  73  84 S6        30.10R
SW REGIONAL AP PTCLDY    77  72  84 S8        30.10S
NAPLES         PTCLDY    78  74  87 SE7       30.10S
MIAMI          MOCLDY    77  72  84 SE3       30.12S
WEST KENDALL   PTCLDY    76  74  93 SE3       30.11F
HOMESTEAD      PTCLDY    75  54  46 CALM      30.12R
MARATHON       CLOUDY    82  73  74 E7        30.10F
BOCA CHICA NAS PTCLDY    83  76  79 SE10      30.10F HX  91
KEY WEST INTL  PTCLDY    84  74  71 SE12      30.11S HX  91

...INTERNATIONAL WEATHER...

CITY           SKY/WX    TMP DP  RH WIND       PRES   REMARKS
NASSAU BAHAMAS MOCLDY    81  75  83 VRB2      30.15S
CANCUN MEXICO  MOCLDY    82  77  83 SE7       30.08R HX  91
COZUMEL MEXICO PTCLDY    75  75 100 E3        30.07R

ADJACENT COASTAL WATERS...

STATION/POSITION TIME  SKY/WX   TEMP    WIND        PRES    WAVE
                                AIR SEA DIR/SP/G            HT/PER
                 (UTC)          (F)     (DEG/KT/KT) (MB)    (FT/S)
PULASKI SHOAL LI 0400            85     130/  5/  6 1019.4F
SAND KEY         0400            83     120/ 16/ 19 1019.4S
SOMBRERO KEY     0400            82     100/ 10/ 11 1020.0F
LONG KEY         0300            81 88  130/  9/ 11 1020.5R
MOLASSES REEF    0400            81 85  140/ 12/ 13 1019.5F
FOWEY ROCKS      0400            81 84  120/ 10/ 11 1019.9S
Buoy 42080       NOT AVBL

$$



USA.gov is the U.S. government's official web portal to all federal, state and local government web resources and services.